Location: Ebendorf
(52.1827°N, 11.5706°E)
Time: 08:09:33
(UTC+00:00)

SL-16 R/B - Pass Details

Date: 15 May 2021
Orbit: 842 x 846 km, 71.0° (Epoch: 23 June)

Event Time Altitude Azimuth Distance (km) Brightness Sun altitude
Rises 02:08:03 0° 176° (S) 3,388 4.9 -9.1°
Reaches altitude 10° 02:10:43 10° 167° (SSE) 2,458 4.3 -8.8°
Maximum altitude 02:15:38 32° 106° (ESE) 1,424 3.7 -8.3°
Drops below altitude 10° 02:20:34 10° 46° (NE) 2,475 6.4 -7.8°
Sets 02:23:15 0° 36° (NE) 3,415 7.6 -7.5°
